Printer-friendly version

IAU Minor Planet Center

Minor Planet Center

MPEC 2008-E26 : 2008 EL

The following Minor Planet Electronic Circular may be linked-to from your own Web pages, but must not otherwise be redistributed electronically.


Read MPEC 2008-E25 Read MPEC 2008-E27


M.P.E.C. 2008-E26                                Issued 2008 Mar. 3, 13:08 UT

     The Minor Planet Electronic Circulars contain information on unusual
         minor planets and routine data on comets.  They are published
   on behalf of Commission 20 of the International Astronomical Union by the
          Minor Planet Center, Smithsonian Astrophysical Observatory,
                          Cambridge, MA 02138, U.S.A.

             Prepared using the Tamkin Foundation Computer Network

                              MPC@CFA.HARVARD.EDU
          URL http://www.cfa.harvard.edu/iau/mpc.html  ISSN 1523-6714

                                    2008 EL

Observations:
     K08E00L  C2008 02 12.39694 11 38 53.73 -05 01 31.2          21.2 V EE026G96
     K08E00L  C2008 02 12.40808 11 38 53.34 -05 01 33.4          21.6 V EE026G96
     K08E00L  C2008 02 12.41938 11 38 52.98 -05 01 35.1          21.3 V EE026G96
     K08E00L  C2008 02 12.43054 11 38 52.58 -05 01 38.0          20.9 V EE026G96
     K08E00L  C2008 03 01.33690 11 07 38.49 -04 50 06.1          18.8   EE026704
     K08E00L  C2008 03 01.34834 11 07 35.22 -04 50 00.2          18.9   EE026704
     K08E00L  C2008 03 01.35978 11 07 32.00 -04 49 54.1          18.9   EE026704
     K08E00L  C2008 03 01.37121 11 07 28.71 -04 49 48.6          19.3   EE026704
     K08E00L  C2008 03 01.38266 11 07 25.50 -04 49 42.0          19.0   EE026704
     K08E00L* C2008 03 01.45331 11 07 05.70 -04 49 04.1          18.8 V EE026703
     K08E00L  C2008 03 01.45528 11 07 05.19 -04 49 03.7          18.4 V EE026703
     K08E00L  C2008 03 01.45722 11 07 04.62 -04 49 01.7          18.6 V EE026703
     K08E00L  C2008 03 01.45920 11 07 04.08 -04 49 00.8          18.5 V EE026703
     K08E00L  C2008 03 01.73059 11 05 52.40 -04 46 36.2          18.3 R EE026D29
     K08E00L  C2008 03 01.74258 11 05 48.85 -04 46 29.4          18.5 R EE026D29
     K08E00L  C2008 03 01.75552 11 05 44.98 -04 46 22.3          18.6 R EE026D29
     K08E00L  C2008 03 01.76846 11 05 41.21 -04 46 14.9          18.3 R EE026D29
     K08E00L  C2008 03 01.90042 11 05 07.41 -04 45 10.5          18.8 V EE026595
     K08E00L  C2008 03 01.90945 11 05 04.62 -04 45 04.8          18.5 V EE026595
     K08E00L  C2008 03 02.25316 11 03 25.56 -04 41 31.0          18.4 V EE026703
     K08E00L  C2008 03 02.26137 11 03 23.00 -04 41 25.6          18.9 V EE026703
     K08E00L  C2008 03 02.26959 11 03 20.37 -04 41 20.7          18.4 V EE026703
     K08E00L  C2008 03 02.27781 11 03 17.74 -04 41 15.2          18.4 V EE026703
     K08E00L  C2008 03 02.28196911 03 15.06 -04 41 19.0          18.9 V EE026H55
     K08E00L  C2008 03 02.28526711 03 14.02 -04 41 17.2          18.8 V EE026H55
     K08E00L  C2008 03 02.28856011 03 12.95 -04 41 14.8          19.2 V EE026H55
     K08E00L  C2008 03 02.32101 11 03 03.94 -04 40 48.2          18.5 R EE026854
     K08E00L  C2008 03 02.32197 11 03 03.67 -04 40 48.4          18.8 R EE026854
     K08E00L  C2008 03 02.32484 11 03 02.71 -04 40 45.9          18.8 R EE026854
     K08E00L 1C2008 03 02.33192 11 03 01.04 -04 40 54.5                 EE026658
     K08E00L 1C2008 03 02.33309 11 03 00.68 -04 40 54.2                 EE026658
     K08E00L 1C2008 03 02.33426 11 03 00.31 -04 40 53.1                 EE026658
     K08E00L  C2008 03 02.64151 11 01 26.87 -04 37 22.8          18.4 R EE026D29
     K08E00L  C2008 03 02.64293 11 01 26.35 -04 37 21.6          18.2 R EE026D29
     K08E00L  C2008 03 02.64407 11 01 26.00 -04 37 21.0          18.2 R EE026D29
     K08E00L  C2008 03 02.64521 11 01 25.63 -04 37 20.6          18.2 R EE026D29
     K08E00L  C2008 03 02.92198 10 59 57.54 -04 34 22.0          18.4 R EE026143
     K08E00L  C2008 03 02.92810 10 59 55.44 -04 34 17.8          18.4 R EE026143
     K08E00L  C2008 03 02.93428 10 59 53.33 -04 34 13.2          18.1 R EE026143
     K08E00L  C2008 03 02.99915 10 59 30.79 -04 33 27.3                 EE026204
     K08E00L  C2008 03 03.00297 10 59 29.46 -04 33 24.6                 EE026204
     K08E00L  C2008 03 03.00739 10 59 27.91 -04 33 21.5          18.0 R EE026204
     K08E00L  C2008 03 03.27781 10 57 58.28 -04 29 51.2          18.1 V EE026703
     K08E00L  C2008 03 03.28830 10 57 54.43 -04 29 43.0          18.1 V EE026703
     K08E00L  C2008 03 03.29880 10 57 50.54 -04 29 34.9          18.0 V EE026703
     K08E00L  C2008 03 03.30931 10 57 46.69 -04 29 27.3          18.3 V EE026703

Observer details:
143 Gnosca.  Observer S. Sposetti.  0.40-m f/4 reflector + CCD.
204 Schiaparelli Observatory.  Observer L. Buzzi.  0.60-m f/4.64 reflector
    + CCD.
595 Farra d'Isonzo.  Observers E. Pettarin, F. Piani.  Measurer F. Piani.
    0.40-m f/4.5 reflector + CCD.
658 National Research Council of Canada.  Observer R. M. Robb.  Measurer
    D. D. Balam.  1.82-m Plaskett telescope + CCD.
703 Catalina Sky Survey.  Observer R. E. Hill.  Measurers E. C. Beshore,
    A. Boattini, G. J. Garradd, A. R. Gibbs, A. D. Grauer, R. E. Hill,
    R. A. Kowalski, S. M. Larson, R. H. McNaught.  0.68-m Schmidt + CCD.
704 Lincoln Laboratory ETS, New Mexico.  Observers M. Bezpalko, D. Torres,
    R. Kracke, G. Spitz, J. Kistler.  Measurers J. Stuart, S. Scruggs.  1.0-m
    f/2.15 reflector + CCD.
854 Sabino Canyon Observatory, Tucson.  Observer J. E. McGaha.  0.36-m f/10.0
    Schmidt-Cassegrain + CCD.
D29 Purple Mountain Observatory, XuYi Station.  Observers H. B. Zhao,
    J. S. Yao, Y. Z. Wu, G. T. Zhaori, R. Q. Hong, L. F. Hu.  Measurers
    H. B. Zhao, G. T. Zhaori, H. Lu, Y. Xia, F. Zeng.  1.04-m f/1.8 Schmidt
    + CCD.
G96 Mt. Lemmon Survey.  Observer R. A. Kowalski.  Measurers E. C. Beshore,
    A. Boattini, G. J. Garradd, A. R. Gibbs, A. D. Grauer, R. E. Hill,
    R. A. Kowalski, S. M. Larson, R. H. McNaught.  1.5-m reflector + CCD.
H55 Astronomical Research Observatory, Charleston.  Observer R. Holmes.
    0.81-m f/4.0 astrograph + CCD.

Orbital elements:
2008 EL                                             PHA, Earth MOID = 0.0105 AU
Epoch 2008 May 14.0 TT = JDT 2454600.5                  MPC
M   0.62972              (2000.0)            P               Q
n   0.85053022     Peri.  102.19612     +0.29366827     +0.95589578
a   1.1032558      Node   184.88921     -0.89711804     +0.27390222
e   0.5389938      Incl.    3.16884     -0.33005783     +0.10602276
P   1.16           H   22.0           G   0.15           U   8
Residuals in seconds of arc
080212 G96  0.0   0.4-    080301 D29  0.8+  0.3-    080302 D29  0.5+  0.2-
080212 G96  0.2-  0.2-    080301 595  0.5+  0.1-    080302 D29  0.2-  0.0
080212 G96  0.2+  0.5+    080301 595  0.9-  0.6+    080302 D29  0.3+  0.1-
080212 G96  0.1-  0.0     080302 703  0.7-  0.5-    080302 D29  0.5+  0.5-
080301 704  1.1+  0.3+    080302 703  0.0   0.1-    080302 143  0.1-  0.1-
080301 704  0.4+  0.3+    080302 703  0.3-  0.2-    080302 143  0.0   0.1-
080301 704  0.6+  0.5+    080302 703  0.4-  0.3+    080302 143  0.3+  0.2+
080301 704  0.3-  0.0     080302 H55  0.1+  0.1+    080302 204  0.1+  0.0
080301 704  0.0   0.6+    080302 H55  0.2+  0.2-    080303 204  0.1+  0.0
080301 703  1.0-  0.3-    080302 H55  0.1-  0.2+    080303 204  0.1+  0.1-
080301 703  0.3-  0.9-    080302 854  0.4+  0.6+    080303 703  0.2-  0.2-
080301 703  0.7-  0.0     080302 854  1.0+  0.2-    080303 703  0.1-  0.2+
080301 703  0.5-  0.2-    080302 854  0.4+  0.5+    080303 703  0.5-  0.3+
080301 D29  0.1+  0.2-    080302 658  0.5-  0.2+    080303 703  0.0   0.0
080301 D29  0.2+  0.1-    080302 658  0.3-  0.2-
080301 D29  0.2-  0.3-    080302 658  0.3-  0.2+

Ephemeris:
2008 EL                  a,e,i = 1.10, 0.54, 3                   q = 0.5086
Date    TT    R. A. (2000) Decl.     Delta      r     Elong.  Phase     V
2008 02 24    11 26.58   -05 17.9    0.208    1.186   158.6    17.7    19.9
2008 02 26    11 22.10   -05 13.4    0.188    1.170   161.3    15.8    19.6
2008 02 28    11 16.40   -05 05.2    0.168    1.153   164.0    13.7    19.2
2008 03 01    11 09.08   -04 52.3    0.149    1.136   166.6    11.7    18.8
2008 03 03    10 59.52   -04 32.6    0.130    1.119   168.6    10.1    18.5
2008 03 05    10 46.70   -04 03.2    0.111    1.101   169.1     9.8    18.1
2008 03 07    10 28.97   -03 18.9    0.0932   1.083   166.5    12.4    17.8
2008 03 09    10 03.40   -02 10.6    0.0765   1.065   160.1    18.5    17.5
2008 03 11    09 24.78   -00 22.3    0.0613   1.047   149.5    28.8    17.3
2008 03 13    08 24.73   +02 28.2    0.0492   1.028   133.0    45.0    17.2
2008 03 15    06 56.53   +06 17.2    0.0423   1.009   109.1    68.6    17.6
2008 03 17    05 14.65   +09 29.3    0.0434   0.990    82.1    95.5    18.6
2008 03 19    03 51.09   +10 44.9    0.0517   0.971    59.7   117.6    20.2
2008 03 21    02 55.22   +10 48.5    0.0647   0.951    44.2   133.1    22.0
2008 03 23    02 19.03   +10 29.8    0.0801   0.931    33.5   143.8    23.7
2008 03 25    01 54.66   +10 07.4    0.0970   0.911    25.7   151.7    25.5

Timothy B. Spahr             (C) Copyright 2008 MPC           M.P.E.C. 2008-E26

Read MPEC 2008-E25 Read MPEC 2008-E27


Our Web policy. Index to the CBAT/MPC/ICQ pages.


Valid HTML 4.01!